{"data":{"norad_id":40367,"epoch":"2026-09-19T21:07:14.894400Z","epoch_age_seconds":67809,"freshness":"FRESH","line1":"1 40367U 14090A   26262.88003350 -.00000305  00000+0  00000+0 0  9996","line2":"2 40367   5.8721  71.6239 0003657 185.8328 157.9227  1.00272146 42944","mean_motion":1.00272146,"eccentricity":0.0003657,"inclination_deg":5.8721,"raan_deg":71.6239,"arg_perigee_deg":185.8328,"mean_anomaly_deg":157.9227,"bstar":0,"rev_number":4294,"period_min":1436.0917337902,"perigee_km":35771.074154621,"apogee_km":35801.913365559,"semimajor_km":42164.63076009,"source":"CELESTRAK","updated_at":"2026-09-20T09:00:35.214292Z"}}